Retour au catalogue

STARLINK-30831

ActifCommunicationsVLEO
NORAD 58153·PAYLOAD·🇺🇸 United States

Lancé Oct 29, 2023 depuis Vandenberg Space Force Base

Loading…

Prochains Passages (prochaines 24 heures)

TLE

FraisSource: CelesTrak SupGP

Époque: Sep 15, 2026, 02:26 UTC

1 58153C 23166D   26258.10187500 -.00027317  00000+0 -87855-3 0  2580
2 58153  53.1588  58.7619 0001211  85.4687 286.5203 15.31712184    13

Suivez STARLINK-30831 en temps réel avec AllMySat

Download on the App Store